Preview of NWS' New Version of Forecast
This preview is not operational and should not be used for support decisions.

Regional Weather Roundup (RWR)

Issued by National Weather Service (NWS)

                            
000
ASUS43 KLSX 210557
RWRMO 

WEATHER SUMMARY FOR MISSOURI
NATIONAL WEATHER SERVICE SPRINGFIELD MO
100 AM CDT SAT SEP 21 2019

NOTE: "FAIR" INDICATES FEW OR NO CLOUDS BELOW 12,000 FEET WITH NO
       SIGNIFICANT WEATHER AND/OR OBSTRUCTIONS TO VISIBILITY.
       CURRENT SKY AND/OR WEATHER CONDITIONS ARE NOT AVAILABLE FOR
       CHILLICOTHE AND FARMINGTON.

MOZ001>031-035>038-043-044-053-054-210700-
...NORTHERN AND WESTERN MISSOURI...
  
CITY           SKY/WX    TMP DP  RH WIND       PRES   REMARKS
KANSAS CTY INT CLOUDY    71  70  96 S14       29.97F                  
6HR MIN TEMP:  70; 6HR MAX TEMP:  75; 6HR PCP:  0.01;                

LEE'S SUMMIT   CLOUDY    73  68  84 S15G28    29.99F                  
6HR MIN TEMP:  72; 6HR MAX TEMP:  77; 6HR PCP:  0.01;                

ST JOSEPH      CLOUDY    72  69  90 S14       29.95S                  
6HR MIN TEMP:  72; 6HR MAX TEMP:  77; 6HR PCP:  0.01;                

CHILLICOTHE      N/A     73  68  84 SE6       30.00F                  
6HR MIN TEMP:  73; 6HR MAX TEMP:  82;                                

     
$$
MOZ066>068-077>081-088>096-101>105-210700-
...SOUTHWEST MISSOURI...
  
CITY           SKY/WX    TMP DP  RH WIND       PRES   REMARKS
SPRINGFIELD    CLOUDY    72  67  84 S14       30.07S                  
6HR MIN TEMP:  71; 6HR MAX TEMP:  73;                                

JOPLIN         PTCLDY    74  69  85 S12       30.03F                  
6HR MIN TEMP:  72; 6HR MAX TEMP:  74;                                

               
$$
MOZ032>034-039>042-045>050-055>058-069>072-210700-
...CENTRAL MISSOURI...  
  
CITY           SKY/WX    TMP DP  RH WIND       PRES   REMARKS
COLUMBIA       NOT AVBL                                               
JEFFERSON CITY MOCLDY    76  68  76 S9        30.06S                  
6HR MIN TEMP:  76; 6HR MAX TEMP:  80;                                

ROLLA          CLEAR     73  66  78 S13       30.11S                  
6HR MIN TEMP:  71; 6HR MAX TEMP:  76; 6HR PCP: TRACE;                

SEDALIA        CLOUDY    71  68  90 S14       30.05R                  
6HR MIN TEMP:  71; 6HR MAX TEMP:  73;                                

WARRENSBURG    CLOUDY    72  66  83 SE12G18   30.01F                  
               
$$
MOZ051-052-059>065-210700-
...EAST CENTRAL MISSOURI...
  
CITY           SKY/WX    TMP DP  RH WIND       PRES   REMARKS
ST LOUIS INTL  MOCLDY    74  69  85 S8        30.12S                  
6HR MIN TEMP:  74; 6HR MAX TEMP:  75;                                

                   
$$
MOZ072>076-082>087-097>100-106>115-210700-
...SOUTH CENTRAL AND SOUTHEAST MISSOURI...
  
CITY           SKY/WX    TMP DP  RH WIND       PRES   REMARKS
CAPE GIRARDEAU FAIR      70  68  93 SE6       30.14S FOG              
6HR MIN TEMP:  69; 6HR MAX TEMP:  72; 6HR PCP:  0.01;                

POPLAR BLUFF   FAIR      71  69  93 CALM      30.14R FOG              
6HR MIN TEMP:  71; 6HR MAX TEMP:  76;                                

WEST PLAINS    CLOUDY    72  68  87 S7        30.15S                  
6HR MIN TEMP:  71; 6HR MAX TEMP:  72;                                

                                       
$$